This demonstration page uses our WeatherBlox Daily Observations layout. Learn more.

Left ArrowRight Arrow

38.89511, -77.03637

Hourly Observations for July 10, 2015

Temp ( °F °C ) Dew Point ( °F °C ) Humidity (%) Winds ( mph kmh ) Pressure ( in mb ) Visibility ( mi km ) Precip ( " mm )
12:52 am 00:52 Mostly Cloudy 82 27.8 70 21.1 67 67 W 10 17 29.93 1014 10 16 N/A
1:52 am 01:52 Mostly Clear 82 27.8 69 20.6 65 65 W 9 15 29.93 1014 10 16 N/A
2:52 am 02:52 Mostly Cloudy 81 27.2 69 20.6 67 67 W 7 11 29.94 1014 10 16 N/A
3:52 am 03:52 Mostly Cloudy 80 26.7 68 20 67 67 VRB 7 11 29.96 1014 10 16 N/A
4:52 am 04:52 Partly Cloudy 79 26.1 67 19.4 67 67 WNW 10 17 29.97 1015 10 16 N/A
5:52 am 05:52 Mostly Cloudy 78 25.6 66 18.9 67 67 NW 9 15 29.98 1015 10 16 N/A
6:18 am 06:18 Mostly Cloudy 79 26 64 18 61 61 NNW 14 22 30.00 1016 10 16 N/A
6:52 am 06:52 Cloudy 78 25.6 62 16.7 58 58 NW 10 17 30.01 1016 10 16 N/A
7:52 am 07:52 Cloudy 78 25.6 60 15.6 54 54 NNW 8 13 30.04 1017 10 16 N/A
8:52 am 08:52 Cloudy 79 26.1 61 16.1 54 54 NNW 14 22 30.06 1018 10 16 N/A
9:52 am 09:52 Cloudy 80 26.7 61 16.1 52 52 NW 14 22 30.06 1018 10 16 N/A
10:52 am 10:52 Mostly Cloudy 81 27.2 63 17.2 54 54 NW 10 17 30.06 1018 10 16 N/A
11:52 am 11:52 Mostly Cloudy 84 28.9 64 17.8 51 51 NNW 8 13 30.06 1018 10 16 N/A
12:52 pm 12:52 Mostly Cloudy 85 29.4 63 17.2 48 48 NNW 15 24 30.06 1018 10 16 N/A
1:52 pm 13:52 Partly Cloudy 86 30 64 17.8 48 48 NNW 14 22 30.05 1018 10 16 N/A
2:52 pm 14:52 Partly Cloudy 87 30.6 65 18.3 48 48 NW 9 15 30.05 1018 10 16 N/A
3:52 pm 15:52 Partly Cloudy 87 30.6 65 18.3 48 48 NNW 13 20 30.04 1017 10 16 N/A
4:52 pm 16:52 Partly Cloudy 87 30.6 65 18.3 48 48 NW 10 17 30.02 1017 10 16 N/A
5:52 pm 17:52 Partly Cloudy 87 30.6 66 18.9 50 50 NNW 8 13 30.01 1016 10 16 N/A
6:52 pm 18:52 Partly Cloudy 86 30 67 19.4 53 53 N 10 17 30.01 1016 10 16 N/A
7:52 pm 19:52 Mostly Cloudy 84 28.9 65 18.3 53 53 NNW 9 15 30.02 1017 10 16 N/A
8:52 pm 20:52 Mostly Cloudy 83 28.3 66 18.9 57 57 NNW 6 9 30.02 1017 10 16 N/A
9:52 pm 21:52 Cloudy 83 28.3 65 18.3 55 55 N 7 11 30.03 1017 10 16 N/A
10:52 pm 22:52 Cloudy 82 27.8 65 18.3 56 56 NNW 7 11 30.05 1018 10 16 N/A
11:52 pm 23:52 Cloudy with Light Rain 82 27.8 66 18.9 58 58 N 5 7 30.05 1018 10 16 N/A

Powered by AerisWeather